STARLINK-36786

Last updated on Mon Mar 23 2026 00:02:07 GMT+0000 (Coordinated Universal Time)

1 67872U 26034Y 26081.29580102 .00664543 00000+0 30515-2 0 9992 2 67872 53.1577 147.9849 0001176 157.1285 202.9790 15.81343283 5930
UTC large
Height (km)
Speed (km/s)
/
Latitude / Longitude
Inclination (degrees)
Orbital Period (minutes)
Azimuth
Elevation
Range (km)
Doppler Factor

Next 0 passes for location: London (51.5072 / 0.1276)

Sorry there are no passes over London.